This is the latest recevied weather packets stored in our database for station/object W4JCW. If no packets are shown the sender has not sent any weather packets the latest 10 day(s).
| Time | Temp. | Humidity | Pressure | Rain* | Wind** | Luminosity | Snow |
|---|---|---|---|---|---|---|---|
| 1777829756 | 19.44° C | 42% | 1017.7 hPa | 0 mm | - | 354 W/m² | - |
| 1777829453 | 19.44° C | 39% | 1017.8 hPa | 0 mm | - | 239 W/m² | - |
| 1777829150 | 18.89° C | 44% | 1018.1 hPa | 0 mm | - | 666 W/m² | - |
| 1777828848 | 18.89° C | 43% | 1017.9 hPa | 0 mm | - | 168 W/m² | - |
| 1777828544 | 19.44° C | 39% | 1017.9 hPa | 0 mm | - | 148 W/m² | - |
| 1777828242 | 19.44° C | 40% | 1017.9 hPa | 0 mm | - | 389 W/m² | - |
| 1777827937 | 18.89° C | 44% | 1018.1 hPa | 0 mm | - | 234 W/m² | - |
| 1777827635 | 18.89° C | 42% | 1018 hPa | 0 mm | - | 144 W/m² | - |
| 1777827332 | 18.89° C | 40% | 1018.2 hPa | 0 mm | - | 209 W/m² | - |
| 1777827029 | 18.89° C | 40% | 1018.2 hPa | 0 mm | - | 148 W/m² | - |
| 1777826726 | 18.33° C | 42% | 1018.2 hPa | 0 mm | - | 192 W/m² | - |
| 1777826422 | 18.33° C | 40% | 1018.6 hPa | 0 mm | - | 190 W/m² | - |
| 1777826120 | 18.33° C | 42% | 1018.4 hPa | 0 mm | - | 115 W/m² | - |
| 1777825817 | 18.33° C | 44% | 1018.5 hPa | 0 mm | - | 117 W/m² | - |
| 1777825514 | 18.33° C | 41% | 1018.8 hPa | 0 mm | - | 80 W/m² | - |
| 1777825212 | 17.78° C | 42% | 1018.7 hPa | 0 mm | - | 150 W/m² | - |
| 1777824908 | 17.78° C | 41% | 1018.8 hPa | 0 mm | - | 294 W/m² | - |
| 1777824604 | 17.78° C | 40% | 1018.9 hPa | 0 mm | - | 784 W/m² | - |
| 1777824301 | 17.78° C | 43% | 1019.1 hPa | 0 mm | - | 939 W/m² | - |
| 1777823996 | 17.22° C | 42% | 1019.1 hPa | 0 mm | - | 936 W/m² | - |
| 1777823694 | 17.78° C | 41% | 1019.2 hPa | 0 mm | - | 931 W/m² | - |
| 1777823390 | 18.33° C | 42% | 1019.2 hPa | 0 mm | - | 922 W/m² | - |
| 1777823089 | 17.78° C | 41% | 1019 hPa | 0 mm | - | 912 W/m² | - |
| 1777822786 | 17.78° C | 44% | 1019.2 hPa | 0 mm | - | 911 W/m² | - |
| 1777822484 | 17.78° C | 44% | 1019.1 hPa | 0 mm | - | 895 W/m² | - |
* Rain latest hour (hover to see other rain measurements)
** Current wind speed in m/s (hover to see current wind gust speed)